Zwartkop Nite Race Series 2018/2019 - #4

10 km

NameGenderTimeOverall PositionGender PositionAverageNTS Index
Emmanuel HlopheMale00:36:53.31103:40/km9.00
Xander van der MerweMale00:41:26.32204:07/km9.65
Jeannie de BeerFemale00:41:34.63104:09/km10.31
Sandra MansvelderFemale00:41:58.14204:10/km10.96
Rizta FoucheFemale00:42:29.65304:13/km11.61
Cobus VisserMale00:42:48.16304:15/km12.26
Joseph MozotoMale00:42:48.27404:15/km12.92
Jean van NiekerkMale00:42:50.88504:16/km13.57
Ben VenterMale00:45:07.89604:30/km14.22
Raymond PhalanndwaMale00:46:11.310704:36/km14.87
Marjolein MansvelderFemale00:46:19.611404:36/km15.53
Louis AvenantMale00:46:27.412804:37/km16.18
Andries PieterseMale00:47:03.813904:42/km16.83
Anri VisserFemale00:48:28.914504:49/km17.48
Simone BohrFemale00:48:31.015604:51/km18.14
Janelle VersterFemale00:48:37.716704:51/km18.79
Charles Orsmond Male00:49:56.2171004:58/km19.44
Pieter HollanderMale00:49:59.6181104:58/km20.09
Pedro Loureiro LemaMale00:50:02.4191205:00/km20.75
Ruan VenterMale00:50:38.2201305:03/km21.40
Lizelle SchreuderFemale00:50:44.121805:03/km22.05
Bernhard Westra Male00:50:48.4221405:03/km22.71
Mario MatraiottiMale00:52:15.7231505:12/km23.36
Frikkie CoetzerMale00:52:18.4241605:12/km24.01
André van KasteropMale00:52:20.8251705:13/km24.66
SVEN-PETER LADEWIGMale00:53:40.3261805:21/km25.32
Annemarie LindeFemale00:54:30.927905:27/km25.97
Bernie JansenMale00:54:34.1281905:27/km26.62
Deon TaljaardMale00:54:36.3292005:27/km27.27
Reinier Posthumus-MeyjesMale00:54:44.1302105:27/km27.93
Ian van der MerweMale00:54:46.3312205:27/km28.58
Abdul MahomedMale00:54:48.7322305:27/km29.23
Alex MareeMale00:54:51.1332405:28/km29.88
Adri Van den heeverFemale00:54:53.3341005:28/km30.54
Diederick SteynMale00:54:55.6352505:28/km31.19
Manyama PhetoleMale00:54:57.4362605:28/km31.84
Natasha FourieFemale00:58:25.8371105:49/km32.49
Fanie RobbertseMale00:58:29.1382705:49/km33.15
Natalie KeoughFemale00:58:32.0391205:51/km33.80
Ofentse MolotoMale00:58:34.1402805:51/km34.45
Henk TaljaardMale00:58:37.6412905:51/km35.11
Sanet BrielFemale00:58:41.1421305:51/km35.76
Kobie JoosteFemale00:59:18.5431405:54/km36.41
Bertha MolotoFemale01:00:35.7441506:03/km37.06
Gerda GroenewaldFemale01:04:26.7451606:25/km37.72
Jacobus VermeulenMale01:04:30.8463006:27/km38.37
Adri PayneFemale01:04:33.7471706:27/km39.02
Rurik Sinovich Male01:04:36.3483106:27/km39.67
Mboya KwagatiFemale01:04:38.6491806:27/km40.33
Carla van der WaltFemale01:04:41.6501906:27/km40.98
Jacobus (Bert) du PlessisMale01:04:44.2513206:27/km41.63
Chantal KnoetzeFemale01:04:46.7522006:27/km42.28
Hugo RustMale01:05:32.8533306:33/km42.94
Atayanda Nazo NazoMale01:05:36.0543406:33/km43.59
BERNICE VAN DER MERWEFemale01:06:07.0552106:36/km44.24
Chris LittleMale01:06:40.1563506:39/km44.89
Leonie LootsFemale01:07:14.1572206:42/km45.55
Andrew PhokwaniMale01:07:18.8583606:42/km46.20
TERESA LE ROUX Female01:08:09.7592306:48/km46.85
Segomotso KelefetsweMale01:08:14.9603706:48/km47.51
Ruth PilaFemale01:09:01.9612406:54/km48.16
Jolandi LabuschagneFemale01:10:47.8622507:03/km48.81
Francois LabuschagneMale01:10:50.5633807:04/km49.46
Monique GerberFemale01:10:54.0642607:04/km50.12
Hein TempelMale01:10:56.0653907:04/km50.77
Ina du ToitFemale01:12:16.6662707:12/km51.42
Johan du ToitMale01:12:19.4674007:12/km52.07
Wilma Du PlooyFemale01:12:57.3682807:16/km52.73
Jacobus LootsMale01:13:21.9694107:19/km53.38
cindy pelserFemale01:13:54.2702907:22/km54.03
Ina BeamishFemale01:14:45.7713007:27/km54.68
Marie HayFemale01:18:16.1723107:48/km55.34
Meshank KekanaMale01:19:02.7734207:54/km55.99
Omphile MabuzaFemale01:19:04.8743207:54/km56.64
Qalo MasangoFemale01:20:09.4753308:00/km57.29
Maniki MoloiMale01:20:11.5764308:00/km57.95
Yonela MsiwaFemale01:20:14.9773408:00/km58.60